Wetbulb
65.74 65.17 61.67 57.72 52.05 52.37 51.13 53.34 57.48 55.89 56.40 59.98 62.11 60.99 60.56 62.07 61.79 62.11 73.69 75.41 76.47 78.13 79.46 77.69 77.36 77.79 78.12 78.09 77.84 77.28 76.90 76.48 76.48 76.43 76.65 76.55 76.45 76.35 76.63 77.05 77.25 77.49 76.42 75.59 75.06 75.39 75.37 75.01 74.33
64.18 59.99 57.60 55.67 48.94 47.92 50.78 55.19 55.62 57.43 58.44 60.44 60.29 59.22 59.55 60.11 65.12 70.72 72.81 75.42 77.18 78.77 79.38 77.94 77.23 77.43 77.74 77.66 77.40 77.20 76.98 76.78 76.48 76.45 76.53 76.57 76.40 76.33 76.63 77.00 77.33 77.05 75.88 75.09 74.25 73.71 73.67 73.68 73.63
61.91 58.75 52.01 48.03 47.24 46.47 50.16 55.54 56.35 58.77 59.37 58.80 58.38 60.56 62.64 63.14 69.83 70.67 75.55 76.16 77.73 78.97 79.19 78.41 77.16 77.11 77.38 77.48 77.15 76.99 76.92 76.74 76.62 76.58 76.58 76.45 76.20 76.22 76.45 76.75 77.11 76.44 75.39 74.85 74.32 73.90 73.50 73.35 73.45
57.98 56.25 53.19 46.32 45.28 49.00 50.82 55.34 55.91 56.89 59.76 60.24 59.94 57.82 61.96 70.74 70.82 73.05 76.30 76.61 77.72 78.32 79.07 77.61 76.93 76.78 76.75 76.98 76.97 76.89 76.79 76.70 76.52 76.50 76.35 76.12 76.25 76.36 76.47 76.65 76.70 76.19 75.36 74.89 74.56 74.03 73.58 73.84 73.78
57.64 54.59 48.15 45.51 45.47 48.72 51.72 53.28 55.91 55.97 57.42 59.22 60.09 57.95 58.90 68.59 74.00 75.01 76.11 76.43 77.22 77.99 78.74 78.42 76.95 76.80 76.58 76.80 76.80 76.60 76.39 76.14 76.07 76.17 76.15 76.15 76.16 76.48 76.59 76.32 76.23 76.06 75.24 74.91 74.52 73.83 73.38 73.25 73.51
51.76 52.18 45.90 44.78 47.15 49.16 50.86 53.42 53.34 54.69 56.87 58.12 57.69 58.46 60.15 72.80 73.49 75.56 76.43 76.61 77.48 77.40 78.61 77.90 77.03 76.60 76.20 76.28 76.12 75.99 75.61 75.64 75.74 75.67 75.89 76.09 76.00 76.23 76.38 76.47 76.37 76.13 75.42 74.96 74.44 73.62 72.82 72.62 73.12
50.85 48.72 45.06 46.22 47.03 48.81 50.57 53.36 51.63 52.89 54.93 57.09 59.14 56.55 61.71 68.34 71.89 75.56 76.49 76.95 77.00 77.14 77.78 77.77 76.89 76.81 76.42 76.12 75.69 75.41 75.24 75.24 75.24 75.08 75.35 75.60 75.98 76.00 76.00 76.06 76.19 75.67 75.22 74.92 74.60 73.75 72.97 72.32 72.12
53.64 51.16 47.36 47.55 46.30 47.17 51.72 52.20 52.88 52.53 52.51 58.01 60.00 55.66 58.04 65.79 72.28 75.08 76.46 76.42 76.71 77.24 77.59 77.16 76.56 75.50 74.83 75.73 75.89 75.44 75.14 74.99 74.71 75.02 75.24 75.40 75.56 75.73 75.70 75.25 75.65 75.45 75.10 74.62 73.88 72.95 72.35 72.18 71.83
54.93 48.51 45.77 47.95 48.07 48.51 52.24 49.56 52.77 54.41 52.95 54.16 55.93 57.81 60.42 68.56 71.67 73.07 75.33 75.68 76.12 76.42 77.15 77.53 76.71 75.58 74.53 74.32 75.39 75.40 75.24 74.96 74.76 74.77 74.90 74.04 72.70 73.98 74.87 74.19 74.76 74.47 73.95 73.55 72.98 72.70 72.41 72.16 72.11
50.39 46.61 47.01 50.80 51.99 50.70 51.69 50.52 51.24 51.11 51.71 52.64 54.01 56.49 57.83 65.59 68.98 69.99 71.82 73.80 74.93 75.50 76.41 77.21 77.53 76.26 75.18 73.67 74.96 74.12 73.54 73.66 73.23 73.10 73.56 72.16 73.21 73.54 73.47 74.37 74.22 73.93 73.68 73.50 73.25 73.03 72.83 72.23 71.39
46.87 45.18 49.28 50.27 52.20 53.12 51.75 51.04 52.25 50.45 50.06 52.43 52.95 54.70 56.30 63.61 66.87 67.61 69.61 72.08 74.72 76.10 76.47 76.97 77.77 77.50 76.10 74.71 74.26 73.72 73.84 73.25 73.90 74.43 73.58 73.65 73.74 74.22 73.47 73.62 73.05 73.54 73.23 72.81 73.05 73.41 72.66 72.11 72.39
44.76 46.84 47.81 49.63 51.92 51.63 51.45 52.63 51.32 51.00 51.72 54.34 54.86 55.71 56.65 57.67 58.56 65.98 67.48 71.14 73.57 75.73 76.38 77.09 77.72 77.38 77.14 75.86 74.58 74.46 73.92 74.23 74.18 74.66 74.70 73.94 73.06 73.75 72.72 72.37 72.46 72.90 72.15 72.34 72.36 71.62 73.40 72.76 72.99
45.44 46.62 48.14 48.60 49.36 51.54 53.04 51.47 51.75 51.81 53.69 54.49 54.83 55.07 55.43 56.93 58.20 60.51 67.68 71.19 73.95 75.21 76.28 76.89 77.55 77.45 76.91 76.40 75.69 75.27 74.70 74.32 74.61 74.47 74.63 73.81 72.43 72.62 72.50 72.86 72.50 72.21 72.40 73.60 73.77 73.20 74.40 74.55 74.29
46.97 47.22 47.54 48.12 48.56 49.38 48.41 50.07 51.99 53.27 55.61 55.45 55.42 55.13 55.28 56.40 57.96 59.68 62.94 70.34 73.63 75.44 76.33 77.12 76.87 77.54 77.86 77.06 76.60 75.58 75.27 74.81 74.70 74.75 74.51 73.95 72.73 72.56 71.45 72.37 72.28 71.59 73.46 75.01 75.21 75.56 75.44 74.84 74.62
46.37 43.06 45.33 46.38 47.74 47.32 49.33 46.11 46.89 52.67 55.22 55.15 55.36 56.29 56.96 57.37 58.20 59.34 62.94 71.00 74.18 75.36 76.72 76.94 77.29 76.77 77.79 77.34 76.76 76.06 75.56 75.02 74.76 74.76 75.62 74.52 74.13 73.74 72.49 71.20 71.19 71.28 74.80 75.97 75.86 75.68 75.37 74.67 75.13
43.55 43.97 39.93 45.35 46.64 47.59 47.28 41.72 48.53 51.44 51.88 52.43 55.22 56.40 56.50 57.75 58.22 59.63 61.67 68.53 73.53 75.54 76.16 76.47 74.96 76.57 77.57 77.16 76.53 75.89 75.66 75.02 74.73 74.62 75.11 74.89 74.39 73.87 72.87 70.93 70.86 72.90 74.95 74.88 74.66 74.62 74.65 74.69 74.22
42.65 37.47 39.32 41.53 46.61 46.18 45.99 43.20 47.96 50.69 50.87 50.81 52.73 55.21 56.74 57.59 59.22 61.04 61.33 63.42 71.43 75.02 76.26 75.03 75.57 76.47 76.88 77.05 76.56 76.50 76.73 75.31 74.84 74.77 74.40 75.20 74.45 73.72 72.80 72.33 74.60 76.09 74.61 74.59 75.51 74.82 73.72 72.45 72.15
37.74 38.43 39.53 39.06 44.02 46.05 44.13 44.26 47.88 50.27 50.30 50.43 52.58 53.50 54.80 55.74 57.39 60.22 61.76 64.20 70.94 75.19 76.43 75.50 75.43 76.40 76.41 76.23 76.03 75.41 75.45 75.09 74.93 74.49 74.28 75.36 74.67 73.99 73.52 72.19 74.94 75.13 75.44 75.30 74.42 72.88 72.26 71.03 71.92
41.50 39.75 38.60 40.71 44.22 43.92 44.38 44.13 46.44 49.21 51.00 51.18 51.76 53.73 54.95 56.05 58.53 60.13 61.89 68.22 72.81 75.39 75.85 74.12 75.02 76.60 74.88 73.83 73.08 73.35 72.76 73.77 73.98 74.42 74.98 74.98 74.45 73.83 72.24 71.50 72.14 73.82 69.94 69.06 69.33 68.79 69.67 67.67 69.45
41.49 39.13 39.13 41.60 43.00 43.91 44.10 43.55 46.85 48.57 49.49 51.13 52.46 53.47 54.67 56.45 57.87 59.75 63.22 70.84 73.50 74.60 74.06 74.46 74.93 74.60 73.87 73.77 73.78 73.57 73.55 73.67 73.81 74.25 74.59 74.59 74.03 74.27 73.77 73.58 70.51 70.66 68.74 65.27 67.23 67.45 67.45 68.15 69.67
41.08 39.06 38.16 37.91 41.45 42.87 42.41 41.67 44.38 48.25 50.02 51.36 52.79 54.40 55.66 56.29 57.41 60.00 65.30 72.01 73.20 73.30 74.30 74.91 74.83 73.68 74.42 74.66 74.12 74.10 74.27 73.74 73.04 73.54 73.91 74.66 74.47 73.79 72.46 70.04 69.77 67.59 66.85 63.38 62.97 64.43 66.91 66.88 68.32
35.72 42.33 40.61 39.23 37.86 33.63 42.17 33.94 42.32 45.26 47.13 49.32 51.19 53.58 54.53 56.29 58.01 60.28 67.45 71.63 73.20 73.96 75.50 75.74 75.18 74.32 74.16 73.97 73.90 72.80 71.41 71.23 72.09 71.04 70.13 69.51 71.44 69.53 69.18 68.39 66.95 68.96 64.44 64.13 64.97 65.43 66.86 67.39 66.39
38.94 42.91 40.58 39.26 37.17 37.24 38.47 36.33 40.44 45.88 45.03 48.11 51.12 52.66 54.89 56.40 58.21 60.93 68.15 72.73 74.42 74.85 74.98 75.16 72.96 73.21 73.75 74.24 73.36 72.43 70.31 68.50 69.27 70.00 70.66 69.92 69.82 70.76 70.06 70.17 68.74 65.55 64.85 66.46 65.82 66.49 66.21 65.99 65.45
43.59 40.52 40.15 39.63 36.95 29.48 36.25 37.11 38.34 42.30 45.96 48.72 51.28 52.20 54.73 56.11 58.14 61.69 67.99 72.79 73.46 74.72 73.79 74.24 73.71 73.38 73.83 73.52 74.52 70.08 69.20 68.79 69.34 70.53 70.41 70.72 70.41 70.02 69.84 68.88 69.05 68.36 68.26 67.61 65.83 65.10 62.98 62.17 61.75
41.62 37.32 30.36 27.25 28.11 28.53 37.80 35.92 39.30 45.09 48.30 50.09 50.41 52.12 54.51 56.71 58.39 60.96 66.17 70.50 70.79 70.65 72.39 71.07 71.82 71.59 71.99 72.01 71.53 71.32 71.40 71.72 71.33 70.74 69.80 69.43 68.59 67.61 67.80 68.50 68.60 65.84 64.05 63.29 60.40 60.97 59.77 58.99 58.71
38.66 38.09 32.03 23.62 26.86 30.76 37.31 33.11 39.13 46.24 49.51 51.56 52.06 53.92 54.74 56.52 58.20 59.42 66.20 68.57 70.75 71.55 72.51 70.61 69.98 70.13 71.38 72.63 71.76 71.98 71.70 70.07 69.76 70.22 68.96 68.37 64.51 65.45 65.57 64.06 60.83 58.77 58.71 58.28 59.93 60.29 60.07 59.31 58.50
38.20 35.00 41.21 34.06 35.56 31.14 34.44 38.24 44.48 46.43 46.96 48.95 50.80 52.56 53.98 56.07 57.99 59.70 66.29 68.75 70.35 71.73 71.94 70.84 68.73 70.21 71.54 72.26 72.39 72.19 71.34 71.12 69.90 70.01 67.67 62.49 64.03 62.15 61.69 59.82 56.93 57.14 57.46 58.13 58.42 58.18 57.52 57.66 58.22
40.38 42.08 33.53 35.04 25.72 24.70 32.93 34.82 36.40 42.44 44.55 47.63 49.37 52.12 54.30 56.12 57.74 59.35 65.22 69.11 70.98 70.30 70.37 68.84 68.87 70.75 71.31 71.73 71.31 70.64 70.62 71.19 69.61 66.04 64.43 63.83 62.36 61.10 59.56 58.15 56.85 56.80 57.37 57.31 57.85 57.86 58.40 58.90 57.89
37.83 36.59 38.35 38.04 35.93 29.00 28.84 34.78 43.73 44.68 46.66 47.60 50.03 53.16 54.55 55.84 57.33 58.83 64.20 69.33 70.39 70.84 67.33 68.12 69.48 70.07 70.07 69.95 70.22 68.10 67.77 65.87 65.78 64.07 62.78 59.97 59.79 58.41 56.92 55.97 54.88 55.55 56.12 56.26 56.68 57.14 57.48 57.61 57.52
41.51 38.42 38.65 33.61 32.17 35.64 33.70 34.16 49.89 46.44 49.50 49.18 50.77 52.92 55.36 56.57 57.78 59.16 65.05 67.90 69.06 65.04 64.84 65.75 66.07 65.53 65.46 65.80 64.75 62.72 63.34 64.03 62.68 62.11 60.86 59.84 57.60 57.32 56.32 55.50 56.22 56.22 56.40 57.41 57.08 57.10 56.81 56.65 56.15
MSLP
1011.62 1010.79 1010.26 1009.35 1007.69 1004.84 1001.93 1000.73 1000.40 1000.27 999.92 999.82 1000.05 999.79 999.45 999.44 999.66 1000.66 1002.60 1003.07 1003.57 1004.49 1005.89 1007.11 1007.72 1007.79 1007.96 1008.30 1008.75 1009.13 1009.49 1009.73 1010.12 1010.58 1011.02 1011.38 1011.90 1012.21 1012.34 1012.52 1012.74 1013.08 1013.24 1013.45 1013.74 1013.93 1014.18 1014.33 1014.44
1010.51 1010.46 1009.67 1007.61 1005.79 1002.67 1000.72 1000.28 999.91 1000.21 999.82 1000.30 1000.30 1000.23 999.75 999.47 999.87 1001.08 1002.16 1003.22 1003.83 1004.59 1005.83 1006.54 1007.81 1007.87 1008.17 1008.48 1008.97 1009.27 1009.56 1009.87 1010.21 1010.68 1011.12 1011.57 1011.97 1012.41 1012.71 1012.83 1012.98 1013.19 1013.40 1013.71 1013.86 1014.03 1014.21 1014.41 1014.55
1010.56 1009.95 1008.09 1006.36 1003.98 1001.56 1000.15 999.50 999.71 1000.14 1000.34 1000.43 1000.18 1000.19 999.99 999.86 1000.66 1000.74 1001.92 1003.08 1003.70 1004.65 1005.51 1006.39 1007.73 1007.98 1008.29 1008.66 1009.05 1009.46 1009.70 1010.00 1010.30 1010.71 1011.22 1011.65 1011.99 1012.44 1012.83 1013.02 1013.34 1013.51 1013.63 1013.78 1014.00 1014.21 1014.35 1014.55 1014.72
1010.03 1009.53 1007.96 1005.24 1002.22 1001.41 1000.69 999.84 999.99 1000.47 1000.27 1000.32 1000.39 1000.15 1000.03 1001.17 1001.22 1001.81 1002.40 1003.16 1003.75 1004.69 1005.16 1006.62 1007.62 1008.15 1008.43 1008.89 1009.15 1009.56 1009.80 1010.09 1010.45 1010.70 1011.21 1011.72 1012.12 1012.46 1012.88 1013.26 1013.41 1013.69 1013.83 1013.92 1014.06 1014.30 1014.50 1014.65 1014.73
1009.56 1007.53 1005.82 1003.84 1002.13 1001.31 1000.76 1000.69 1000.25 1000.72 1000.22 999.87 1000.10 1000.02 1000.23 1001.18 1002.14 1002.27 1002.76 1003.33 1003.84 1004.60 1005.28 1006.90 1007.67 1008.14 1008.63 1009.07 1009.43 1009.76 1009.86 1010.21 1010.67 1011.03 1011.38 1011.83 1012.26 1012.64 1012.97 1013.26 1013.49 1013.69 1013.91 1014.03 1014.16 1014.30 1014.47 1014.63 1014.72
1008.29 1006.78 1004.31 1002.17 1001.29 1001.18 1000.77 1001.21 1001.26 1000.95 1000.23 1000.20 1000.33 1000.23 1000.23 1001.89 1002.03 1002.71 1003.10 1003.45 1004.08 1004.73 1005.57 1006.75 1007.78 1008.12 1008.63 1008.99 1009.48 1009.76 1010.02 1010.49 1010.88 1011.27 1011.58 1012.03 1012.44 1012.77 1013.12 1013.36 1013.55 1013.71 1013.96 1014.18 1014.35 1014.48 1014.54 1014.57 1014.67
1007.32 1005.82 1003.49 1002.06 1000.67 1000.10 1000.43 1001.00 1001.26 1001.03 1000.57 1000.25 1000.48 1000.21 1000.01 1001.36 1002.17 1002.58 1003.14 1003.38 1004.07 1004.75 1005.51 1006.46 1007.33 1008.12 1008.66 1009.12 1009.39 1009.73 1010.12 1010.63 1010.94 1011.35 1011.74 1012.19 1012.52 1012.97 1013.23 1013.64 1013.79 1013.99 1014.10 1014.26 1014.34 1014.45 1014.56 1014.69 1014.74
1007.57 1005.86 1003.71 1002.12 1000.72 999.74 1000.08 1000.65 1001.67 1001.36 1000.34 1000.56 1000.49 1000.28 1000.42 1001.22 1002.57 1002.65 1002.92 1003.29 1003.92 1004.68 1005.33 1006.15 1006.83 1007.70 1008.34 1009.12 1009.74 1009.92 1010.42 1010.91 1011.29 1011.62 1012.00 1012.39 1012.72 1013.14 1013.43 1013.76 1013.93 1014.13 1014.17 1014.26 1014.44 1014.58 1014.69 1014.79 1014.84
1008.43 1005.79 1003.02 1001.83 1001.00 1000.82 1000.77 1000.86 1000.88 1001.51 1000.92 1000.57 1000.45 1000.33 1000.46 1002.11 1002.78 1002.86 1003.15 1003.29 1003.57 1004.41 1005.07 1005.68 1006.44 1007.22 1007.65 1008.35 1009.67 1010.44 1010.87 1011.31 1011.74 1011.96 1012.39 1012.77 1012.31 1012.84 1013.30 1013.26 1013.71 1014.23 1014.38 1014.43 1014.60 1014.69 1014.81 1014.88 1014.76
1007.68 1005.35 1003.04 1002.40 1001.64 1001.23 1001.17 1001.19 1000.92 1001.07 1000.84 1000.29 1000.26 1000.25 1000.84 1001.59 1002.23 1002.36 1002.69 1002.84 1003.16 1003.85 1004.62 1005.27 1006.26 1006.87 1007.39 1008.01 1009.28 1009.97 1010.70 1011.00 1011.24 1011.56 1012.19 1012.04 1011.90 1012.40 1012.49 1013.04 1013.89 1014.29 1014.45 1014.53 1014.62 1014.68 1014.75 1014.69 1013.29
1007.27 1005.22 1004.15 1003.16 1002.81 1002.51 1001.99 1001.18 1001.15 1000.74 1000.14 1000.02 1000.07 1000.10 1000.48 1001.16 1001.75 1001.69 1001.96 1002.14 1002.69 1003.57 1004.26 1004.97 1006.14 1006.83 1007.18 1007.87 1009.01 1009.36 1010.14 1010.65 1010.99 1011.32 1011.88 1011.65 1011.98 1012.43 1012.53 1012.66 1013.29 1013.42 1014.07 1013.48 1013.92 1013.96 1013.70 1013.13 1013.11
1007.48 1006.40 1005.67 1004.77 1003.72 1003.70 1002.67 1002.19 1001.18 1001.11 1000.55 1000.18 1000.34 1000.32 1000.22 1000.69 1000.97 1001.31 1001.42 1001.75 1002.29 1003.31 1004.11 1004.92 1005.90 1006.78 1007.18 1007.55 1008.57 1008.77 1009.53 1010.24 1010.66 1011.04 1011.60 1011.77 1012.08 1012.37 1012.27 1012.20 1012.41 1012.87 1012.74 1012.85 1013.17 1012.79 1013.16 1013.33 1013.28
1007.19 1006.71 1006.30 1005.51 1005.36 1004.44 1003.71 1002.49 1001.94 1001.34 1001.45 1001.08 1000.87 1000.75 1000.75 1000.92 1000.92 1001.31 1001.46 1001.55 1002.22 1003.06 1004.01 1004.82 1005.84 1006.70 1007.30 1007.69 1008.22 1008.75 1009.35 1010.10 1010.19 1010.89 1011.42 1011.58 1011.80 1012.26 1012.31 1012.33 1012.36 1012.38 1012.41 1012.62 1012.73 1012.68 1012.79 1012.91 1012.82
1007.01 1006.55 1006.21 1005.85 1005.53 1005.01 1004.24 1002.98 1002.60 1001.70 1001.95 1001.58 1001.35 1000.90 1000.70 1000.79 1000.77 1001.08 1001.16 1001.53 1002.01 1002.81 1003.73 1004.83 1006.03 1007.11 1007.52 1007.77 1008.24 1008.86 1009.27 1009.82 1010.23 1010.66 1011.16 1011.70 1011.78 1012.18 1012.24 1012.56 1012.58 1012.49 1012.51 1012.34 1012.44 1012.49 1012.61 1012.43 1012.28
1007.57 1006.98 1006.09 1005.51 1005.31 1004.81 1004.76 1002.63 1000.32 1002.00 1001.67 1001.22 1001.13 1000.92 1000.64 1000.36 1000.62 1000.89 1000.73 1001.44 1001.97 1002.76 1003.73 1004.78 1006.05 1007.28 1007.53 1007.88 1008.49 1008.83 1009.11 1009.42 1010.02 1010.35 1011.10 1011.43 1011.82 1012.19 1012.18 1012.25 1012.35 1012.25 1012.46 1012.85 1012.79 1012.58 1012.31 1012.36 1012.13
1007.19 1006.47 1004.80 1004.03 1004.23 1004.13 1004.75 999.59 1000.63 1000.95 1001.18 1000.82 1000.65 1000.12 999.94 999.81 999.97 1000.59 1000.86 1000.96 1001.69 1002.47 1003.32 1004.79 1006.30 1007.02 1007.45 1007.77 1008.41 1008.61 1009.04 1009.34 1009.74 1010.09 1010.66 1011.33 1011.79 1012.12 1012.52 1012.22 1012.27 1012.17 1012.51 1012.42 1012.50 1012.51 1012.40 1012.49 1012.79
1005.80 1004.89 1003.92 1002.88 1002.97 1003.08 1002.99 999.55 1000.78 1000.24 999.77 999.81 999.88 999.76 999.41 999.26 999.34 999.78 1000.25 1000.56 1001.11 1002.23 1003.08 1004.71 1005.96 1006.35 1007.20 1007.84 1008.27 1008.68 1009.18 1009.50 1009.74 1010.07 1010.47 1011.26 1011.73 1012.06 1012.21 1012.20 1012.09 1012.91 1012.60 1012.77 1013.04 1013.16 1013.27 1013.10 1013.30
1004.08 1003.61 1003.45 1003.20 1002.68 1002.54 1001.56 1000.65 1000.50 999.55 998.90 999.13 998.96 998.83 998.64 998.48 998.36 998.94 999.54 1000.04 1000.56 1001.85 1002.95 1004.41 1005.60 1006.03 1007.00 1007.76 1008.31 1008.70 1009.29 1009.70 1009.82 1010.18 1010.51 1011.43 1011.62 1012.02 1012.38 1012.31 1012.73 1012.89 1012.94 1013.64 1013.93 1013.91 1013.84 1014.06 1014.15
1005.21 1004.57 1003.84 1003.56 1003.02 1002.18 1000.92 1000.14 999.82 999.65 999.08 998.72 998.16 997.87 997.74 997.71 997.80 998.29 998.89 999.35 1000.37 1001.65 1002.78 1004.15 1005.17 1005.91 1006.82 1007.70 1007.86 1008.35 1008.83 1009.49 1010.04 1010.36 1011.15 1011.50 1011.86 1012.47 1012.98 1012.96 1013.04 1013.41 1014.38 1014.47 1015.00 1014.78 1014.27 1014.16 1013.07
1004.85 1004.38 1003.61 1003.53 1003.39 1002.09 1001.11 1000.17 999.56 999.08 998.72 998.70 998.25 997.61 997.28 997.21 997.30 997.89 998.57 999.09 1000.47 1001.46 1002.67 1003.89 1004.88 1005.79 1006.87 1007.25 1007.55 1007.87 1008.48 1009.42 1009.83 1010.55 1011.12 1011.44 1011.98 1012.54 1012.72 1013.19 1014.01 1014.42 1015.04 1015.45 1015.83 1015.65 1014.81 1014.14 1013.94
1004.61 1004.15 1003.66 1003.72 1003.02 1002.69 1001.66 1000.19 999.39 998.97 999.07 998.65 997.89 997.47 997.10 996.79 996.68 997.46 997.96 998.88 1000.41 1001.35 1002.11 1003.11 1004.25 1005.46 1006.25 1006.77 1007.75 1008.55 1009.08 1009.70 1010.23 1010.80 1011.10 1011.39 1011.74 1012.59 1013.31 1014.04 1014.34 1014.53 1014.73 1016.19 1015.39 1015.12 1015.43 1015.08 1014.60
1004.42 1003.91 1003.92 1003.81 1003.26 1001.79 1001.42 998.80 997.73 997.64 997.21 997.49 997.08 996.58 996.45 996.39 996.36 996.84 997.59 999.17 1000.08 1000.98 1001.72 1002.78 1004.03 1005.30 1006.16 1006.76 1006.87 1008.20 1008.56 1009.22 1010.80 1011.69 1012.28 1012.62 1012.73 1013.22 1013.58 1013.95 1014.21 1014.08 1014.37 1014.94 1015.68 1015.71 1015.24 1015.20 1014.88
1004.34 1004.14 1004.08 1003.80 1003.21 1002.13 1000.45 998.70 996.30 995.92 995.04 995.60 995.46 995.06 995.32 995.72 995.82 996.29 997.05 998.61 999.37 1000.25 1001.25 1002.69 1004.25 1005.19 1006.09 1006.36 1007.00 1006.72 1009.84 1011.00 1011.56 1012.07 1012.23 1012.80 1013.07 1012.72 1012.81 1013.32 1013.94 1014.43 1014.55 1014.98 1015.58 1015.79 1015.65 1015.48 1015.25
1004.33 1004.16 1004.09 1004.05 1003.36 1001.43 1000.15 998.06 995.76 994.75 994.61 994.25 993.78 994.03 994.39 994.84 995.24 995.98 996.87 997.76 998.44 999.61 1001.01 1002.51 1004.17 1005.09 1005.81 1005.73 1006.33 1008.23 1010.17 1011.00 1011.36 1011.27 1011.52 1011.81 1012.24 1012.88 1013.15 1013.37 1014.09 1014.75 1015.23 1015.39 1015.86 1016.01 1016.39 1016.04 1016.23
1004.06 1004.13 1003.85 1003.75 1002.77 1000.28 999.15 997.82 995.42 994.24 993.84 993.53 993.08 993.17 993.67 994.18 994.70 995.43 996.35 997.25 998.00 999.12 1000.42 1002.85 1003.71 1004.26 1005.19 1005.97 1007.75 1008.93 1009.89 1010.22 1010.56 1010.62 1010.80 1011.71 1012.60 1013.42 1014.13 1014.49 1014.59 1014.96 1015.60 1015.61 1016.41 1016.68 1016.60 1016.73 1016.63
1003.30 1003.36 1002.10 1001.27 1000.17 998.87 998.16 996.01 994.75 994.31 993.51 993.56 993.63 993.12 993.17 993.71 994.27 994.97 995.91 996.91 997.86 999.17 1000.54 1002.48 1003.73 1004.74 1005.61 1006.56 1008.10 1009.02 1009.53 1009.86 1010.17 1010.56 1011.55 1012.36 1013.91 1014.53 1015.14 1015.66 1015.69 1015.09 1016.14 1016.66 1016.56 1016.55 1016.79 1016.89 1016.76
1003.12 1003.11 1001.97 1001.68 999.99 998.49 996.58 995.98 994.41 994.05 994.07 994.07 994.07 993.82 992.79 993.12 993.64 994.42 995.68 996.64 997.57 999.28 1001.06 1002.62 1003.89 1005.02 1005.86 1007.00 1007.83 1008.51 1009.23 1009.70 1010.13 1011.66 1012.99 1014.23 1014.80 1015.44 1016.14 1016.42 1016.37 1015.81 1016.74 1017.05 1016.98 1017.00 1017.30 1017.22 1017.11
1003.30 1002.95 1002.46 1002.18 1000.21 997.86 995.41 994.24 993.52 993.35 992.99 993.23 993.20 992.96 992.80 992.77 993.33 994.13 995.50 996.70 998.13 1000.15 1001.53 1003.01 1004.27 1005.18 1006.11 1006.91 1007.70 1008.54 1009.49 1010.13 1011.37 1012.94 1013.73 1014.57 1015.41 1015.96 1016.69 1016.63 1016.56 1016.51 1017.26 1017.21 1017.32 1017.31 1017.78 1017.40 1017.10
1003.19 1002.93 1001.99 1001.33 1000.03 998.02 995.26 993.00 992.56 991.90 992.35 992.48 992.79 992.47 992.23 992.39 993.06 994.10 995.57 997.14 999.03 1000.66 1002.44 1003.78 1004.84 1005.58 1006.52 1007.51 1008.02 1009.38 1010.47 1011.72 1012.74 1013.75 1014.56 1015.38 1016.20 1016.75 1016.76 1016.86 1016.99 1017.31 1017.56 1017.74 1017.93 1017.83 1017.79 1017.48 1017.08
1002.05 1001.98 1001.69 1000.70 999.65 998.71 997.27 995.31 993.01 992.51 991.78 991.79 992.24 992.58 992.23 992.60 993.02 994.43 996.27 998.13 999.72 1002.41 1003.84 1004.71 1005.61 1006.50 1007.44 1008.30 1009.35 1010.55 1011.68 1012.81 1013.61 1014.34 1015.04 1015.96 1016.51 1016.77 1017.07 1017.20 1017.43 1017.55 1017.89 1018.19 1018.18 1017.81 1017.69 1017.42 1017.40
Wind_Speed
9 10 5 6 9 9 18 19 10 9 10 7 2 7 4 10 8 6 2 10 18 20 20 19 16 18 18 18 18 19 19 20 19 18 18 17 16 14 15 14 13 11 12 11 10 9 7 7 7
8 7 6 5 11 16 15 19 15 14 6 3 5 9 10 7 6 9 7 14 19 21 19 21 17 18 19 19 18 19 20 20 20 19 18 17 16 14 13 13 12 12 12 10 10 9 8 7 7
8 9 7 7 14 20 18 18 15 15 6 7 6 5 8 2 8 5 9 19 21 21 21 20 18 18 18 19 19 18 19 19 19 19 18 17 16 14 12 12 10 11 11 11 9 8 8 7 7
8 7 6 13 21 21 25 15 3 14 15 11 11 9 4 9 3 2 13 17 22 21 21 22 20 18 19 18 18 18 18 19 19 19 18 17 16 14 13 11 11 10 10 10 9 7 7 7 7
7 6 14 19 26 24 16 20 11 12 15 18 14 17 5 9 6 7 13 16 20 20 18 21 19 18 18 18 18 18 18 18 18 18 18 17 16 14 13 12 11 10 10 9 9 8 7 7 7
9 8 15 22 24 24 23 15 19 16 13 11 8 16 7 5 5 8 12 17 19 20 19 21 19 19 18 18 17 17 17 17 17 16 17 16 15 14 12 11 10 10 9 8 8 7 6 7 7
18 13 20 24 23 25 23 20 21 19 18 16 5 9 5 4 5 8 12 16 18 19 19 19 20 18 18 18 18 17 17 17 17 17 16 15 14 12 11 9 8 8 8 8 8 7 6 5 6
13 16 25 23 22 26 15 22 15 23 23 19 7 9 12 9 4 9 11 15 17 18 18 20 19 19 18 16 15 16 16 16 16 16 15 14 13 11 10 8 8 8 8 7 5 4 4 5 5
11 15 20 26 25 17 18 15 20 17 22 22 24 21 3 6 6 8 10 14 16 16 18 19 19 19 18 18 15 14 15 14 14 13 13 11 11 12 13 6 12 6 5 5 4 4 3 4 8
19 17 27 20 17 15 21 17 19 20 18 22 18 20 11 10 12 11 13 15 19 20 20 18 18 18 17 13 16 14 13 12 11 12 13 10 10 9 8 9 7 5 4 4 4 4 4 8 7
19 25 21 19 16 17 20 18 17 15 20 22 23 21 16 13 13 12 14 14 19 20 17 19 17 16 17 13 11 8 8 8 8 11 12 8 7 7 6 6 7 7 8 7 9 9 8 4 5
23 22 21 26 22 14 24 21 21 21 20 10 13 15 17 17 11 13 14 15 16 20 19 19 20 17 16 11 11 11 9 8 7 9 11 7 6 7 6 5 5 4 5 4 4 4 2 4 5
20 22 22 14 17 24 20 26 20 23 20 20 15 14 14 16 14 10 11 13 15 18 20 19 18 17 15 14 11 10 9 9 9 9 10 8 7 6 6 5 5 4 4 5 4 3 2 3 5
15 10 15 22 24 20 24 27 24 26 19 18 19 22 20 19 17 13 12 13 16 18 20 19 18 16 15 13 13 10 9 10 8 8 9 9 7 6 6 6 6 5 5 3 3 3 3 4 5
15 18 19 20 20 24 24 28 39 23 20 15 27 23 22 21 18 16 11 13 17 17 18 18 15 16 16 14 12 10 9 9 8 8 9 10 8 7 6 6 5 5 4 4 4 5 5 5 5
18 17 20 19 22 21 23 37 23 25 26 27 21 20 22 22 19 16 15 13 16 18 20 18 13 18 17 14 12 9 9 8 7 7 8 10 8 6 6 4 5 4 4 5 4 4 5 5 5
14 16 21 22 20 13 27 30 24 26 15 24 25 25 20 19 20 17 15 15 17 18 19 18 19 19 17 14 11 9 9 7 6 6 6 8 7 6 4 4 3 3 4 5 3 3 4 4 5
14 14 14 18 14 19 26 26 24 13 22 20 20 23 25 25 24 19 17 16 16 17 18 16 16 17 17 12 9 7 7 6 5 5 5 7 5 6 6 4 2 4 2 4 4 5 5 4 6
20 22 21 18 15 20 21 20 23 24 14 13 20 17 20 21 20 19 13 14 16 17 16 15 16 15 10 10 10 8 8 7 6 5 5 6 5 5 4 3 1 7 9 10 9 7 6 5 9
23 24 24 18 22 20 21 17 18 21 22 22 18 18 19 16 19 12 15 16 14 17 17 19 19 14 13 10 7 6 6 6 6 6 6 6 6 6 5 4 9 9 8 9 11 9 6 4 5
21 23 19 18 15 23 22 23 21 21 20 22 24 20 19 19 19 15 15 18 15 17 21 22 21 19 16 14 10 8 8 8 7 8 6 7 7 11 12 11 9 10 9 6 5 7 8 7 8
20 19 18 18 17 18 25 19 24 25 25 25 26 23 22 20 17 15 17 17 19 21 21 20 18 16 16 16 13 11 8 8 8 8 7 8 12 13 13 11 9 12 7 4 3 3 6 4 6
18 14 13 17 17 16 24 18 16 20 19 23 26 27 23 21 17 17 19 21 22 20 19 17 16 17 16 15 13 11 13 9 8 9 13 11 9 12 13 11 10 5 3 4 2 2 4 2 4
12 14 14 14 15 16 20 19 19 18 18 20 25 25 22 21 18 18 18 21 19 21 20 19 20 20 18 15 14 19 18 15 12 11 10 9 9 8 9 10 7 4 3 5 4 5 4 5 5
12 10 7 10 10 15 19 22 17 21 18 19 21 20 22 20 18 17 19 20 20 21 20 16 16 17 16 15 19 19 20 18 16 14 10 9 7 7 8 9 9 7 7 8 6 4 5 4 4
14 17 10 9 14 16 18 14 19 27 14 10 2 9 20 21 18 18 19 19 21 20 20 19 16 17 16 18 20 18 19 12 10 7 9 7 8 7 8 9 9 11 9 6 4 4 3 4 3
7 15 20 11 15 11 12 18 13 23 22 20 16 12 15 22 21 19 20 18 20 20 20 22 19 18 18 19 19 18 15 14 12 13 14 9 10 9 8 9 9 11 8 5 4 4 4 2 3
18 8 11 9 8 14 15 20 16 19 21 19 19 18 19 21 21 19 19 19 18 18 16 19 18 19 20 21 18 16 16 13 14 13 13 12 11 11 8 10 11 10 7 6 4 3 2 2 4
9 14 12 8 14 6 11 13 17 18 23 22 19 14 16 20 22 19 20 21 21 20 16 16 18 19 17 17 16 15 13 15 14 13 14 13 12 10 10 11 10 9 8 7 5 4 4 6 8
14 18 18 9 13 13 13 5 16 22 11 22 20 15 12 19 21 21 22 23 23 20 18 16 16 18 16 16 17 16 14 15 15 14 14 13 12 11 11 10 9 9 8 6 5 7 7 9 8
Wind_Direction
234 210 218 226 236 233 244 235 235 240 221 237 293 240 283 313 303 23 35 154 144 151 155 166 159 150 145 145 145 145 147 146 147 147 148 151 154 154 151 145 142 142 139 137 135 132 125 120 120
204 185 208 238 243 232 234 235 209 231 230 220 214 262 253 292 332 135 131 155 159 151 157 165 165 153 148 146 147 150 150 149 148 149 150 151 151 152 149 145 144 145 142 136 134 133 129 128 129
205 221 226 222 233 238 242 233 232 232 189 221 236 239 303 355 24 64 100 163 163 159 160 159 166 155 150 149 151 153 151 150 148 149 150 150 149 149 149 146 144 147 144 140 137 133 131 133 135
180 192 244 239 234 228 244 247 27 242 236 214 240 265 236 49 29 44 152 165 161 162 164 144 162 158 153 155 154 156 153 150 151 149 149 150 149 148 146 143 144 150 146 142 138 135 135 147 154
216 225 234 227 241 246 231 254 219 250 241 225 222 252 237 77 72 127 158 169 164 161 162 158 161 156 155 156 158 160 153 150 150 149 148 149 149 147 146 146 148 148 149 149 146 149 154 163 174
201 242 233 235 234 236 240 222 258 234 234 236 230 249 252 84 112 137 162 170 166 162 161 160 158 157 159 159 160 156 150 150 149 149 148 148 147 149 147 151 152 153 159 159 156 158 171 180 190
239 214 241 246 246 233 224 233 225 235 232 220 230 245 202 178 66 141 165 160 166 165 164 163 168 161 159 163 162 156 152 154 153 151 148 148 148 148 146 149 151 161 165 170 173 178 188 200 213
233 257 249 242 247 245 238 224 220 237 234 235 202 238 235 103 142 143 163 163 168 167 171 171 170 169 171 168 163 155 155 155 151 148 146 149 144 145 149 150 163 175 175 175 182 191 204 220 232
242 238 240 240 238 249 248 224 229 233 239 230 240 234 249 130 162 153 167 175 174 173 175 176 173 174 181 171 161 154 153 148 143 141 143 147 173 173 161 167 141 184 187 186 194 204 220 239 235
229 233 241 252 257 239 256 224 246 214 229 228 223 235 251 166 205 189 185 187 185 182 178 180 177 177 182 169 158 169 160 165 168 168 167 184 167 184 186 142 146 186 204 209 213 222 236 235 246
234 246 261 251 266 255 258 254 239 219 235 220 227 226 206 199 212 217 203 202 192 188 182 183 177 181 178 170 167 170 166 161 169 170 177 183 171 174 201 172 184 198 189 215 191 194 221 234 298
251 258 267 263 277 237 252 260 247 238 238 195 225 230 203 200 226 212 221 208 201 189 187 187 177 180 183 170 180 169 171 168 175 174 178 164 191 174 199 202 193 205 186 211 223 223 282 275 276
248 256 261 261 270 268 269 259 258 242 243 259 250 234 230 231 233 235 231 222 198 192 193 190 181 186 183 179 178 175 172 182 178 169 179 180 190 185 192 190 213 208 191 184 215 215 244 261 253
271 262 262 252 252 260 257 260 255 240 250 257 248 243 238 238 234 233 230 215 202 200 196 189 184 191 185 185 175 175 178 176 177 179 175 186 196 183 189 194 209 214 221 205 217 200 257 262 277
262 264 256 238 243 248 257 260 245 248 237 246 234 240 248 245 241 240 232 208 203 206 197 190 182 183 185 181 172 182 170 173 183 183 176 194 200 179 213 208 217 213 208 247 234 242 233 255 273
259 252 256 238 233 229 232 253 245 225 232 239 243 238 234 236 228 221 227 214 208 208 193 183 176 189 182 175 173 181 164 183 181 184 177 191 189 189 202 206 219 210 227 235 250 274 310 317 324
233 259 267 253 223 241 217 247 246 262 224 229 229 235 234 241 233 225 226 235 207 201 194 168 185 185 180 172 172 178 159 190 184 183 178 172 182 181 225 220 181 234 252 256 333 281 349 352 322
273 268 262 255 243 223 239 239 253 253 236 224 231 230 233 236 234 223 220 228 199 195 189 161 189 178 175 165 163 170 155 182 175 172 168 158 176 172 192 196 243 258 325 350 350 348 4 323 309
271 274 271 271 250 248 248 241 234 238 231 235 233 225 224 229 227 219 218 209 187 188 174 160 181 167 159 166 170 166 167 164 163 146 128 154 125 148 157 257 181 31 40 33 12 350 348 350 11
260 257 258 259 262 235 239 244 238 245 235 244 241 236 232 223 217 198 210 183 183 178 162 166 179 152 162 169 167 163 160 158 153 147 149 132 136 143 153 123 83 69 60 27 4 348 348 301 33
250 249 255 259 255 248 267 248 239 238 242 247 244 236 234 228 212 197 200 177 169 175 174 174 176 157 173 152 139 136 126 133 154 152 129 128 127 87 95 92 91 91 87 58 20 344 346 316 334
259 243 248 247 253 248 217 248 232 231 229 226 236 229 224 225 216 191 190 173 176 184 183 169 165 160 164 155 143 157 155 125 82 96 94 86 103 115 118 127 132 125 134 137 223 339 317 319 307
248 268 266 242 249 237 259 235 243 226 215 214 222 221 216 210 198 186 182 184 192 184 175 152 148 158 154 153 146 125 97 109 115 129 120 123 139 150 149 149 139 132 110 147 231 11 21 343 326
228 248 236 241 248 243 237 243 223 222 218 215 220 213 207 203 186 181 181 186 182 174 147 144 155 149 154 136 117 116 134 140 141 143 148 164 156 142 126 136 130 126 133 117 98 64 32 19 0
227 224 224 218 219 234 216 241 234 205 221 226 219 208 206 200 180 180 171 184 170 160 149 136 143 133 132 131 125 143 144 148 150 158 168 140 139 114 111 117 113 96 68 83 63 57 55 33 355
221 212 228 218 220 231 214 229 210 238 210 212 312 276 198 199 183 183 169 176 168 163 141 136 133 136 141 131 137 149 143 148 151 135 119 114 81 107 93 85 81 89 75 65 68 72 6 18 339
231 226 248 304 279 265 228 218 233 216 219 234 237 240 215 190 190 175 162 169 170 152 153 144 140 148 142 142 145 145 145 148 118 112 89 96 102 103 98 104 93 80 82 73 65 55 16 343 316
226 278 216 215 251 244 233 221 213 207 212 218 216 212 211 194 187 167 154 153 145 143 142 134 145 150 142 145 141 140 143 132 108 106 116 106 106 106 114 93 83 78 77 60 45 61 29 16 22
208 229 231 255 248 270 283 210 205 215 197 206 207 214 198 193 180 164 146 138 142 132 122 133 140 138 141 126 140 116 111 111 116 115 113 104 109 111 93 80 78 75 71 62 56 62 35 37 28
234 221 233 224 216 232 266 297 336 201 190 195 193 200 200 189 179 158 140 142 139 120 129 129 127 124 117 116 113 107 111 120 113 111 110 115 107 98 93 91 85 76 70 64 63 47 32 27 17